Regional Weather Roundup
Issued by NWS

Home | Current Version | Previous Version | Graphics & Text | Print | Product List | Glossary On
Versions: 1 2 3 4 5 6 7 8 9 10 11 12 13 14 15 16 17 18 19 20 21 22 23 24 25 26 27 28 29 30 31 32 33 34 35 36 37 38 39 40 41 42 43 44 45 46 47 48 49 50
000
ASUS45 KABQ 030701
RWRNM
NEW MEXICO REGIONAL WEATHER ROUNDUP
NATIONAL WEATHER SERVICE ALBUQUERQUE NM
100 AM MDT WED JUN 03 2015

NOTE: "FAIR" MEANS FEW OR NO CLOUDS BELOW 12,000 FEET AGL WITH NO
       SIGNIFICANT WEATHER OR OBSTRUCTIONS TO VISION.

      THIS PRODUCT IS RELEASED AS TWO VERSIONS.  ONE VERSION NEAR
      THE TOP OF THE HOUR CONTAINING PRELIMINARY DATA FROM ALBUQUERQUE
      AND OTHER STATIONS.  A FINAL VERSION WITH ADDITIONAL DATA IS
      ISSUED ABOUT 10 MINUTES AFTER THE HOUR.

NMZ501-503-504-510>518-030800-
NORTHWEST PLATEAU/NORTHCENTRAL MOUNTAINS

CITY           SKY/WX    TMP DP  RH WIND       PRES   REMARKS
FARMINGTON     CLEAR     53  28  38 NE5       30.02S
SANTA FE       CLEAR     55  22  27 N8        30.07F
TAOS           PTCLDY    48  21  34 N6        30.14S

$$
NMZ402-403-502-505>509-030800-
WESTCENTRAL MOUNTAINS/SOUTHWEST MOUNTAINS

CITY           SKY/WX    TMP DP  RH WIND       PRES   REMARKS
GALLUP         CLEAR     55  20  25 CALM      30.14S
SILVER CITY      N/A     63  21  20 N12       30.10R

$$
NMZ407-409-411-412-030800-
SOUTHERN DESERTS

CITY           SKY/WX    TMP DP  RH WIND       PRES   REMARKS
DEMING         CLEAR     71  21  15 NW9       30.00R
HOLLOMAN AFB   CLEAR     74  19  12 SE6       29.93S
ALAMOGORDO     CLEAR     68  16  13 SE7       29.96S
T OR C         CLEAR     73  18  12 W7        29.99S

$$
NMZ519>523-030800-
CENTRAL VALLEYS/CENTRAL HIGHLANDS

CITY           SKY/WX    TMP DP  RH WIND       PRES   REMARKS
ALBUQUERQUE    CLEAR     71  26  18 N5        30.02S
DOUBLE EAGLE   CLEAR     56  29  35 W10       30.06S
CLINES CORNERS CLEAR     62  18  18 W6        30.11F
BELEN          FAIR      61  20  21 CALM      30.02R
SOCORRO        NOT AVBL

$$
NMZ524>526-539-540-030800-
SOUTHCENTRAL MOUNTAINS

CITY           SKY/WX    TMP DP  RH WIND       PRES   REMARKS
RUIDOSO        NOT AVBL

$$
NMZ527>531-030800-
NORTHEAST HIGHLANDS/NORTHEAST PLAINS

CITY           SKY/WX    TMP DP  RH WIND       PRES   REMARKS
LAS VEGAS      PTCLDY    51  31  46 N5        30.10F
RATON          CLEAR     53  34  48 NE8       30.03F
CLAYTON        CLEAR     63  51  65 SW8       29.94F

$$
NMZ532>537-030800-
EASTCENTRAL PLAINS

CITY           SKY/WX    TMP DP  RH WIND       PRES   REMARKS
TUCUMCARI      CLEAR     71  55  56 S9        29.90F
CANNON AFB     CLEAR     65  59  81 S6        29.97F
CLOVIS AIRPORT CLEAR     64  59  82 S8          N/A

$$
NMZ028-029-538-030800-
SOUTHEAST PLAINS

CITY           SKY/WX    TMP DP  RH WIND       PRES   REMARKS
ROSWELL        CLEAR     71  53  52 S10       29.91F
ARTESIA        CLEAR     70  55  60 S10       29.92F
CARLSBAD       CLEAR     70  53  54 SE3       29.90F
HOBBS          CLEAR     68  61  77 S8        29.96F


$$



USA.gov is the U.S. government's official web portal to all federal, state and local government web resources and services.